TimeAKST,TemperatureF,Dew PointF,Humidity,Sea Level PressureIn,VisibilityMPH,Wind Direction,Wind SpeedMPH,Gust SpeedMPH,PrecipitationIn,Events,Conditions,WindDirDegrees,DateUTC
12:46 AM,39.2,37.4,93,30.09,7.0,NNW,5.8,-,0.04,Rain,Light Rain,330,2013-11-10 09:46:00
12:53 AM,39.0,37.0,93,30.09,8.0,North,4.6,-,0.04,Rain,Light Rain,350,2013-11-10 09:53:00
1:53 AM,37.9,37.0,97,30.07,7.0,NNW,3.5,-,0.05,Rain,Light Rain,330,2013-11-10 10:53:00
3:23 AM,37.4,35.6,93,30.05,10.0,NW,3.5,-,0.03,Rain,Light Rain,310,2013-11-10 12:23:00
3:30 AM,37.4,37.4,100,30.04,10.0,NNW,3.5,-,0.03,Rain,Light Rain,340,2013-11-10 12:30:00
3:37 AM,37.4,35.6,93,30.04,10.0,NNW,5.8,-,0.03,Rain,Light Rain,330,2013-11-10 12:37:00
3:50 AM,37.4,35.6,93,30.03,10.0,NNW,3.5,-,0.04,Rain,Light Rain,330,2013-11-10 12:50:00
3:53 AM,37.9,36.0,93,30.03,10.0,NNW,4.6,-,0.04,Rain,Light Rain,340,2013-11-10 12:53:00
4:53 AM,37.0,36.0,96,30.00,10.0,North,3.5,-,0.01,Rain,Light Rain,350,2013-11-10 13:53:00
5:40 AM,37.4,35.6,93,29.97,6.0,WNW,3.5,-,0.03,Rain,Light Rain,300,2013-11-10 14:40:00
5:53 AM,37.0,36.0,96,29.97,8.0,Calm,Calm,-,0.04,Rain,Light Rain,0,2013-11-10 14:53:00
6:53 AM,37.0,36.0,96,29.95,10.0,NW,3.5,-,0.04,Rain,Light Rain,310,2013-11-10 15:53:00
7:22 AM,37.4,35.6,93,29.93,8.0,NNW,3.5,-,0.03,Rain,Light Rain,340,2013-11-10 16:22:00
7:46 AM,37.4,35.6,93,29.92,9.0,NW,3.5,-,0.05,Rain,Light Rain,310,2013-11-10 16:46:00
7:53 AM,37.0,36.0,96,29.91,9.0,North,5.8,-,0.05,Rain,Light Rain,350,2013-11-10 16:53:00
8:53 AM,37.0,36.0,96,29.90,6.0,NNW,4.6,-,0.09,Rain,Light Rain,340,2013-11-10 17:53:00
9:07 AM,37.4,35.6,93,29.89,7.0,Calm,Calm,-,0.02,Rain,Light Rain,0,2013-11-10 18:07:00
9:37 AM,37.4,35.6,93,29.88,5.0,Calm,Calm,-,0.07,Rain,Rain,0,2013-11-10 18:37:00
9:53 AM,37.0,36.0,96,29.88,3.0,Calm,Calm,-,0.10,Rain,Rain,0,2013-11-10 18:53:00
10:53 AM,37.0,35.1,93,29.86,6.0,NNW,4.6,-,0.08,Rain,Light Rain,330,2013-11-10 19:53:00
11:26 AM,37.4,35.6,93,29.84,7.0,NNW,5.8,-,0.03,Rain,Light Rain,330,2013-11-10 20:26:00
11:53 AM,37.0,35.1,93,29.83,10.0,NNW,5.8,-,0.04,Rain,Light Rain,340,2013-11-10 20:53:00
12:07 PM,37.4,35.6,93,29.83,8.0,NNW,3.5,-,0.00,Rain,Light Rain,330,2013-11-10 21:07:00
12:53 PM,37.0,35.1,93,29.81,8.0,NW,4.6,-,0.04,Rain,Light Rain,310,2013-11-10 21:53:00
1:53 PM,37.9,35.1,89,29.79,10.0,Calm,Calm,-,0.03,Rain,Light Rain,0,2013-11-10 22:53:00
2:53 PM,37.9,35.1,89,29.78,8.0,NNW,3.5,-,0.04,Rain,Light Rain,330,2013-11-10 23:53:00
3:53 PM,37.0,35.1,93,29.75,8.0,NW,3.5,-,0.03,Rain,Light Rain,310,2013-11-11 00:53:00
4:53 PM,37.0,35.1,93,29.74,8.0,Calm,Calm,-,0.04,Rain,Light Rain,0,2013-11-11 01:53:00
5:53 PM,37.0,36.0,96,29.74,10.0,North,-9999.0,-,0.02,Rain,Light Rain,0,2013-11-11 02:53:00
6:43 PM,37.4,35.6,93,29.73,10.0,Calm,Calm,-,0.01,Rain,Light Rain,0,2013-11-11 03:43:00
6:53 PM,37.0,36.0,96,29.73,10.0,Calm,Calm,-,0.01,Rain,Light Rain,0,2013-11-11 03:53:00
7:53 PM,37.9,36.0,93,29.73,9.0,North,4.6,-,0.03,Rain,Light Rain,10,2013-11-11 04:53:00
8:36 PM,37.4,35.6,93,29.74,10.0,North,9.2,-,0.03,Rain,Light Rain,10,2013-11-11 05:36:00
8:53 PM,37.0,35.1,93,29.74,9.0,North,8.1,-,0.03,Rain,Light Rain,10,2013-11-11 05:53:00
9:22 PM,37.4,35.6,93,29.74,10.0,NNE,5.8,-,0.02,Rain,Light Rain,20,2013-11-11 06:22:00
9:53 PM,37.0,35.1,93,29.74,8.0,North,12.7,21.9,0.03,Rain,Light Rain,10,2013-11-11 06:53:00
10:06 PM,39.2,33.8,81,29.74,7.0,North,24.2,31.1,0.01,,Unknown,350,2013-11-11 07:06:00
10:20 PM,39.2,33.8,81,29.74,10.0,NNW,13.8,28.8,0.01,Rain,Light Rain,330,2013-11-11 07:20:00
10:53 PM,37.9,32.0,79,29.76,10.0,North,13.8,27.6,0.02,Rain,Light Rain,360,2013-11-11 07:53:00
11:53 PM,37.0,30.9,79,29.76,10.0,NNE,13.8,23.0,0.01,,Overcast,20,2013-11-11 08:53:00